Powrót do katalogu

THORAD AGENA D DEB

AktywnyPO
NORAD 5060·DEBRIS·🇺🇸 United States

Wystrzelony Apr 8, 1970 z Vandenberg Space Force Base

Loading…

Następne Przeloty

TLE

Source: Space-Track
1 05060U 70025JE  26229.74237078  .00000309  00000-0  16065-3 0  9997
2 05060  99.9847 328.3358 0142941 338.4560  21.0634 14.17993770886287

Śledź THORAD AGENA D DEB w czasie rzeczywistym z AllMySat

Download on the App Store